Voltar ao catálogo

CZ-6A DEB

AtivoSSO
NORAD 54993·DEBRIS·🇨🇳 China

Lançado Nov 11, 2022 de Taiyuan Satellite Launch Center

Loading…

Próximas Passagens (próximas 24 horas)

TLE

AtualizadoSource: Space-Track

Época: Sep 14, 2026, 10:07 UTC

1 54993U 22151UJ  26257.42220882  .00000575  00000-0  33850-3 0  9990
2 54993  98.8544 256.7785 0051897  89.0866 271.6251 14.11260226196361

Acompanhe CZ-6A DEB em tempo real com AllMySat

Download on the App Store